Theta_e
316 316 317 314 315 318 318 316 322 318 315 315 318 321 321 322 322 322 323 324 324 324 325 325 326 326 325 325 326 327 326 324 322 315 316 315 311 311 308 307 310 310 311
315 314 315 315 314 317 316 317 315 318 319 321 321 321 321 322 322 321 320 320 319 319 319 319 319 321 321 321 322 322 323 322 322 320 313 309 306 306 310 311 312 312 311
314 314 313 314 316 312 316 314 311 317 318 318 317 317 317 318 317 318 317 316 315 316 315 314 314 313 315 314 315 316 315 316 315 314 307 305 308 308 311 311 310 309 310
311 312 311 311 314 314 316 315 314 314 315 315 315 314 314 315 313 313 311 310 311 311 310 310 309 308 308 308 308 308 306 305 307 308 308 307 308 311 312 312 311 311 311
310 310 310 310 314 316 316 314 314 313 314 312 311 310 311 310 309 309 308 308 308 307 306 305 305 304 304 304 305 306 305 305 306 308 310 311 311 312 312 312 312 312 309
309 309 310 312 313 316 315 312 313 312 311 310 309 308 308 307 306 306 306 306 305 304 303 304 304 304 304 305 305 306 308 309 310 311 310 311 311 311 311 311 311 312 310
309 309 311 312 314 315 311 312 311 308 307 307 306 306 305 304 304 304 303 304 304 304 304 304 305 305 306 308 309 309 310 310 311 310 309 309 309 309 309 309 309 309 308
308 308 310 312 314 311 311 310 307 306 305 305 304 304 303 303 303 303 302 303 304 304 304 305 304 305 306 307 307 306 308 309 309 307 308 307 306 307 307 308 310 310 308
308 309 311 311 310 310 309 306 305 304 303 302 302 302 302 302 302 302 303 305 303 303 305 306 305 306 307 306 305 307 305 305 304 304 304 305 304 304 307 308 309 309 307
308 308 310 310 309 308 305 304 302 302 301 303 303 302 303 302 303 303 303 304 304 304 304 305 306 308 307 307 305 305 307 307 306 306 306 304 303 303 303 305 308 307 306
308 308 308 308 306 305 303 302 302 302 303 301 302 302 302 303 304 304 304 303 304 304 305 304 305 306 306 307 307 307 306 306 308 307 305 303 303 304 304 304 305 305 305
308 308 306 305 303 302 302 302 303 303 303 304 304 304 304 304 304 305 305 304 304 304 304 305 306 306 306 306 306 306 306 306 305 304 303 302 302 301 301 302 304 305 305
307 305 304 303 302 303 303 304 305 305 305 304 305 305 305 304 304 304 304 304 305 305 305 305 305 306 306 306 306 306 306 306 305 303 302 302 301 300 299 299 300 302 302
305 303 303 304 304 304 305 305 305 304 304 304 304 304 305 305 305 305 305 306 306 306 306 306 306 306 306 306 305 305 305 304 303 302 302 301 300 300 299 299 299 300 302
303 302 302 304 304 303 303 303 303 303 303 303 303 303 304 304 304 304 304 305 305 306 306 306 306 306 306 305 305 304 304 302 301 301 301 300 300 299 299 299 299 298 300
303 303 303 303 302 302 302 301 301 302 302 302 302 303 303 303 303 303 303 305 305 305 305 305 305 305 306 304 304 303 302 300 299 300 300 300 300 299 299 299 299 299 300
304 304 303 303 302 302 302 301 301 301 301 302 302 302 303 303 303 304 304 303 305 305 304 304 304 303 305 304 303 301 300 299 299 300 299 299 299 299 299 299 300 301 301
305 305 305 304 304 303 303 303 302 301 300 301 302 301 302 302 303 304 304 304 304 304 303 304 304 303 304 304 302 301 300 300 299 299 300 300 299 299 298 299 300 301 301
306 305 304 305 305 304 303 303 303 303 303 302 301 301 301 302 302 303 303 303 304 303 304 303 303 303 303 303 302 301 300 300 299 299 300 300 300 300 300 300 301 301 302
306 305 305 305 305 305 305 305 303 302 300 300 300 300 300 301 302 302 302 302 303 303 303 303 303 302 303 302 302 301 301 301 300 300 300 300 300 301 301 302 303 303 303
305 306 306 306 306 304 302 300 299 298 298 298 298 300 301 301 301 301 302 303 303 302 302 302 302 303 302 302 301 303 302 302 302 301 301 302 303 303 301 303 303 303 303
306 306 306 304 302 302 300 298 299 299 299 298 298 299 300 300 301 301 301 301 302 301 301 301 302 302 302 303 303 303 302 303 303 303 303 303 304 304 304 302 302 303 301
306 305 303 302 302 302 300 300 300 300 299 299 299 298 299 299 299 300 301 300 300 300 300 301 301 302 302 303 303 303 303 303 303 303 303 303 303 303 303 304 304 303 302
305 303 303 303 302 300 300 300 300 300 299 299 298 298 298 298 297 297 298 299 299 299 300 300 301 302 303 303 304 303 302 303 304 303 303 303 303 303 303 303 303 303 303
304 303 302 301 300 300 300 300 300 299 299 299 298 298 297 296 296 296 296 296 297 298 299 300 301 301 302 302 303 303 303 304 304 303 304 303 303 303 304 304 303 303 303
303 302 301 301 301 300 300 300 300 299 299 298 298 298 297 296 295 294 294 293 295 296 298 300 300 301 301 302 302 303 303 303 303 303 303 303 303 303 303 303 303 303 303
Wind_Speed
20 22 27 27 22 22 24 26 24 22 19 17 19 20 19 18 19 19 19 18 18 19 20 19 22 20 19 18 14 12 17 17 16 12 17 14 15 12 7 6 4 2 1
21 20 20 25 24 22 19 17 20 27 19 16 16 16 16 17 17 17 19 17 16 16 17 16 15 15 15 12 11 10 15 17 15 15 21 18 14 10 8 8 4 8 4
22 20 20 18 25 21 19 15 16 25 18 14 13 14 16 16 16 15 15 15 15 14 13 11 5 0 3 6 7 8 11 15 17 23 23 18 16 13 11 10 7 7 3
22 23 23 19 20 20 16 18 19 18 14 12 13 12 13 12 11 12 12 11 11 11 9 7 5 6 10 13 15 19 22 24 26 26 23 19 13 13 8 5 5 5 4
23 24 23 18 18 15 16 20 14 13 12 10 9 11 12 11 12 11 10 11 11 10 8 8 8 7 11 13 16 20 20 24 23 22 20 18 11 10 3 6 8 16 10
25 24 19 15 20 12 16 16 13 8 7 8 10 11 13 14 13 12 10 10 10 10 11 10 11 13 15 13 14 19 19 17 21 19 13 19 13 12 9 9 9 15 10
20 23 17 21 14 12 17 11 8 6 8 9 11 11 12 13 13 12 11 11 10 9 10 7 8 12 13 14 16 14 11 11 15 20 18 15 9 8 7 8 6 7 7
18 19 21 15 6 12 11 6 5 6 8 9 10 10 12 19 19 19 21 18 19 13 12 14 14 18 17 12 13 7 12 18 16 14 11 8 3 7 8 5 6 8 5
16 17 9 7 10 8 4 6 9 9 12 17 18 15 17 17 14 13 16 17 14 9 8 7 7 5 7 12 13 12 15 17 13 11 10 11 10 2 7 7 11 12 4
13 13 12 15 8 5 10 11 14 20 21 20 20 19 19 18 20 13 11 11 13 14 12 15 15 17 10 10 18 16 15 17 14 15 15 13 15 10 5 11 16 14 10
11 12 7 5 8 13 16 19 23 23 23 21 18 17 17 16 17 15 13 14 13 15 18 22 22 19 17 17 17 17 17 15 11 15 13 13 14 13 13 11 9 8 8
9 2 6 16 20 23 26 24 23 23 22 23 25 24 23 21 19 18 17 17 19 23 21 21 20 14 16 15 14 14 13 13 12 12 14 14 13 18 17 16 14 13 11
2 12 21 25 28 25 23 22 19 17 19 20 21 20 20 22 22 22 19 15 16 14 15 15 15 16 18 16 13 14 14 13 12 12 13 11 11 13 16 19 18 18 17
14 23 28 25 19 20 15 14 18 21 23 21 21 21 21 20 19 14 17 13 13 14 15 17 14 17 14 16 19 16 14 10 9 10 12 10 11 11 13 17 23 21 23
26 28 22 23 23 22 21 21 20 21 19 20 20 21 24 23 19 21 22 19 16 15 17 20 19 21 19 19 18 16 16 13 13 14 13 12 13 13 15 18 26 30 32
32 29 26 24 24 26 25 27 24 21 22 23 21 20 19 17 18 18 22 16 20 18 23 23 22 18 22 19 19 19 14 15 16 13 14 16 16 16 19 18 20 26 27
31 28 25 23 23 24 24 25 28 26 25 24 22 21 19 16 13 18 15 22 23 20 25 24 25 22 23 20 23 23 23 20 16 17 19 20 20 22 22 23 24 22 21
30 27 21 20 21 22 22 21 20 22 25 23 20 20 20 19 17 11 17 20 22 23 23 21 24 22 23 23 26 24 21 23 22 22 22 23 24 27 28 27 26 28 27
19 23 20 19 17 19 18 17 16 15 15 17 18 21 21 22 23 25 25 22 23 24 22 24 21 23 25 23 26 27 31 28 29 28 35 38 39 35 33 32 33 35 36
27 22 22 19 19 16 17 19 19 18 18 23 22 20 19 20 24 26 27 26 26 24 25 25 23 22 25 24 23 24 26 30 30 34 41 38 38 42 40 33 34 37 39
22 20 18 18 19 18 19 20 21 22 23 23 23 22 21 24 25 25 26 26 27 25 24 23 21 24 25 24 26 26 27 29 28 34 32 35 28 28 32 39 35 37 40
17 17 19 19 20 21 21 21 21 21 22 23 23 23 23 26 26 26 25 24 26 28 27 23 22 26 26 22 22 28 28 31 26 22 23 24 27 28 24 29 41 43 42
20 21 21 23 23 21 21 21 20 21 22 22 23 24 25 26 26 27 27 27 24 19 23 27 25 25 27 26 26 24 27 27 29 25 26 26 26 28 29 26 19 26 31
19 21 21 20 20 22 22 22 21 21 22 23 25 25 25 26 27 26 24 24 26 28 26 24 24 27 27 27 27 24 24 23 23 23 24 26 28 28 27 29 29 24 19
19 21 21 20 21 22 22 21 21 21 23 24 24 25 25 26 25 25 26 26 28 28 30 32 31 27 25 26 26 27 25 24 26 28 27 26 26 26 25 24 25 26 25
20 21 20 20 20 20 20 21 20 21 22 23 24 23 23 23 23 23 22 21 22 24 28 29 29 28 26 25 24 24 24 22 22 23 25 25 26 24 23 25 25 25 24
Wind_Direction
321 334 328 329 326 336 323 308 331 330 329 334 319 311 312 315 318 315 312 310 309 306 303 297 292 287 287 288 283 259 227 213 204 165 204 186 176 179 182 228 222 249 131
322 322 328 324 317 340 322 319 321 321 320 315 313 315 319 323 323 330 331 328 332 331 324 311 299 290 285 280 271 252 225 223 217 180 158 153 151 181 171 155 154 260 310
319 327 320 323 319 323 328 326 329 308 310 322 327 332 334 336 338 350 341 348 354 354 349 343 337 320 173 164 160 163 144 136 151 152 141 132 152 149 133 102 145 206 286
316 318 316 308 323 321 314 324 319 315 331 343 342 354 359 1 14 16 16 22 19 23 33 39 60 97 118 122 126 127 136 130 131 127 127 123 130 130 115 116 124 163 171
316 313 314 303 325 301 300 311 325 332 348 355 11 26 31 36 37 32 32 35 34 38 43 58 61 91 113 109 119 119 125 128 122 119 124 123 127 143 143 173 170 167 152
315 318 316 309 313 292 313 336 332 342 16 32 43 42 44 53 46 41 33 33 39 59 73 84 97 101 105 109 121 119 110 116 119 128 128 115 119 129 141 117 144 186 149
318 316 319 320 286 305 330 337 335 24 42 48 51 47 52 52 37 40 42 49 56 60 62 71 108 114 116 88 75 93 107 121 118 119 123 116 133 147 163 135 119 137 143
322 326 318 320 289 335 343 342 37 62 60 54 49 52 65 80 60 53 60 79 84 69 65 66 98 109 112 88 80 84 88 93 96 87 93 110 141 164 158 152 181 208 162
326 332 325 343 347 354 25 77 79 67 63 62 58 74 78 73 62 66 65 57 63 79 84 82 88 47 88 105 106 112 93 82 83 83 79 65 47 186 162 140 151 168 151
323 329 337 345 12 57 91 86 80 76 75 74 70 68 60 63 61 65 70 76 65 76 69 55 55 71 129 123 112 114 110 93 83 88 79 52 23 22 190 205 163 141 154
320 320 336 20 89 93 89 84 91 85 75 72 72 61 63 65 56 74 68 84 83 86 83 80 69 73 66 73 86 89 87 91 93 111 77 51 34 58 77 95 148 183 181
319 346 79 96 93 91 92 91 87 84 83 77 72 69 68 69 63 58 67 76 81 86 88 85 73 74 84 84 80 72 74 86 75 70 63 53 49 55 67 79 90 105 107
128 102 103 105 100 92 87 88 79 76 76 70 63 70 72 75 75 77 68 69 74 76 80 97 83 84 80 80 75 94 88 99 100 76 66 67 63 65 70 67 86 92 96
118 113 109 99 89 84 83 85 91 87 78 73 73 73 64 67 68 87 58 88 71 74 82 75 83 83 77 85 81 86 82 67 64 72 86 90 94 97 88 96 91 99 96
121 112 103 95 97 97 97 91 86 83 86 87 81 79 78 76 73 71 78 74 68 71 73 74 73 87 70 86 77 83 66 51 65 98 97 102 104 105 104 104 105 99 95
115 108 103 100 101 98 97 89 83 85 84 86 82 80 82 78 70 72 80 86 67 75 68 70 73 84 69 91 71 66 56 83 89 95 100 108 108 105 107 111 113 111 108
113 108 105 109 106 99 93 88 90 87 86 84 82 75 72 75 90 73 81 63 73 59 63 71 69 85 65 79 66 67 73 77 85 93 101 103 104 108 109 111 113 108 104
114 114 113 114 111 101 89 92 89 85 82 81 74 70 74 72 63 80 68 76 76 70 70 65 67 78 79 77 60 74 77 77 81 94 103 103 106 107 107 108 109 110 109
102 118 119 114 105 109 110 108 104 98 89 85 82 71 67 56 61 67 70 69 71 78 71 68 69 76 82 75 73 79 75 79 82 94 100 95 89 90 97 102 108 109 108
124 127 123 118 113 108 100 91 81 82 74 73 76 71 70 67 61 59 61 64 67 72 75 73 69 76 77 73 75 79 80 81 81 102 94 88 82 76 77 93 103 107 105
123 117 112 108 100 92 91 90 90 88 85 80 75 74 73 69 68 65 60 64 65 73 75 71 82 78 84 80 80 76 89 83 88 84 89 88 79 86 83 77 90 99 100
117 110 108 102 101 99 98 94 93 91 87 82 78 74 75 74 71 64 62 68 74 74 71 71 82 87 88 83 80 77 85 72 83 79 74 79 77 80 98 90 86 88 92
110 110 108 106 103 100 100 96 91 89 87 84 81 78 76 75 73 71 68 61 64 74 83 80 88 94 92 88 85 88 85 78 79 86 83 90 87 87 90 100 104 94 91
115 112 107 107 105 102 99 97 93 90 87 85 82 80 77 75 74 70 73 75 72 68 78 90 99 101 97 90 88 88 88 92 87 87 88 90 87 89 89 92 98 102 101
115 112 108 107 106 104 101 99 95 91 88 86 82 79 75 73 74 75 76 68 67 77 79 83 89 94 94 95 93 90 88 88 84 87 82 85 89 91 94 93 92 92 93
115 112 110 109 108 106 103 101 98 95 91 89 87 84 82 79 77 76 74 74 83 84 87 91 90 91 91 92 94 94 93 92 96 98 98 94 91 88 89 89 96 103 105